[[{"header":{"parameterUnit":"m.s-1","parameterCategory":1,"la1":30.2991,"la2":30.254,"lo1":-89.0895,"lo2":-89.0444,"dx":0.0017,"dy":0.0017,"nx":28,"ny":28,"refTime":"2022-11-26T09:00:00:Z","depth":0,"parameterNumber":2,"parameterNumberName":"U-component_of_WINDS"},"data":[0,0,0,0,0,0,0,0,0,0,0,0,0,0,0,0,0,0,0,0,0,0,0,0,0,0,0,0,0,0,0,0,0,0,0,0,0,0,0,0,0,0,0,0,0,0,0,0,0,0,0,0,0,0,0,0,0,0,-4.8758,-4.8759,0,-4.8844,-4.8845,-4.8846,-4.8743,-4.8739,-4.8735,-4.8731,-4.8821,-4.8826,-4.8832,0,0,0,0,0,0,0,0,0,0,0,0,0,-4.8507,-4.8512,-4.8758,-4.8759,-4.876,-4.8844,-4.8845,-4.8846,-4.8743,-4.8739,-4.8734,-4.873,-4.8819,-4.8826,-4.8833,0,0,0,0,0,0,0,0,0,0,0,0,0,-4.8607,-4.8513,-4.8758,-4.8719,-4.8716,-4.8844,-4.8845,-4.8847,-4.8744,-4.8739,-4.8733,-4.8727,-4.8816,-4.8825,-4.8834,-4.9004,0,0,-4.8861,-4.8865,0,0,0,0,0,0,0,0,-4.8601,-4.8616,-4.8723,-4.8722,-4.8719,-4.8777,-4.8789,-4.8899,-4.8746,-4.8734,-4.8731,-4.8725,-4.8811,-4.882,-4.8849,-4.9008,-4.9012,-4.8862,-4.8867,-4.8871,-4.8874,0,0,0,0,0,0,0,-4.8594,-4.8612,-4.8792,-4.8725,-4.8722,-4.8698,-4.8706,-4.8809,-4.8803,-4.8734,-4.8727,-4.8739,-4.8808,-4.884,-4.885,-4.9013,-4.8862,-4.8869,-4.8875,-4.8878,-4.9318,-4.9324,0,0,0,0,0,0,-4.8592,-4.8607,-4.8789,-4.8794,-4.8645,-4.8707,-4.8716,-4.8764,-4.8802,-4.8802,-4.8743,-4.8733,-4.8828,-4.884,-4.8853,-4.9055,-4.8871,-4.8879,-4.8884,-4.9312,-4.932,-4.9327,0,0,0,0,0,0,-4.8587,-4.8609,-4.8786,-4.8699,-4.8719,-4.8717,-4.8772,-4.8769,-4.88,-4.8809,-4.8807,-4.8777,-4.8824,-4.884,-4.8967,-4.9056,-4.8883,-4.8891,-4.9305,-4.9314,-4.9323,-4.946,0,0,0,0,0,0,-4.858,-4.8608,-4.8672,-4.8701,-4.8724,-4.8899,-4.8778,-4.8775,-4.8816,-4.8804,-4.884,-4.884,-4.882,-4.8955,-4.8976,-4.9065,-4.8898,-4.9297,-4.9309,-4.932,-4.9448,-4.9473,-4.9495,0,0,0,0,0,-4.8571,-4.8707,-4.8675,-4.8698,-4.8804,-4.8904,-4.8917,-4.8891,-4.8823,-4.8888,-4.8894,-4.8839,-4.9044,-4.8968,-4.8992,-4.9085,-4.9291,-4.9305,-4.9319,-4.9437,-4.9468,-4.9495,0,0,0,0,0,0,-4.8687,-4.871,-4.8675,-4.8824,-4.8863,-4.8886,-4.8967,-4.8925,-4.8984,-4.897,-4.8936,-4.8945,-4.9081,-4.9096,-4.9012,-4.9253,-4.9156,-4.9176,-4.9238,-4.9267,-4.9291,-4.9284,-4.8906,0,0,0,0,0,-4.8731,-4.8809,-4.8825,-4.8954,-4.8976,-4.8969,-4.9011,-4.8988,-4.9027,-4.9043,-4.9058,-4.9098,-4.9171,-4.922,-4.9288,-4.945,-4.9457,-4.9526,-4.955,-4.9569,-4.9586,-4.9674,-4.9705,-4.9373,-4.9373,-4.9373,0,0,-4.882,-4.8842,-4.8893,-4.8978,-4.9006,-4.9089,-4.8983,-4.9075,-4.9136,-4.9057,-4.9178,-4.9191,-4.9234,-4.9379,-4.9444,-4.9396,-4.968,-4.9587,-4.9603,-4.9609,-4.9692,-4.9723,-4.9751,-4.9383,-4.9381,-4.938,0,0,-4.9025,-4.905,-4.9161,-4.9191,-4.9234,-4.9229,-4.9256,-4.9286,-4.9292,-4.9413,-4.9356,-4.9429,-4.9556,-4.9589,-4.9622,-4.9844,-4.9796,-4.9867,-4.999,-5.0076,-5.0102,-5.0125,-5.0204,-5.0233,-4.9884,-4.9885,-4.9885,0,-4.913,-4.9252,-4.9223,-4.932,-4.9359,-4.9292,-4.9405,-4.9436,-4.95,-4.9529,-4.9474,-4.9633,-4.9657,-4.981,-4.9864,-4.9894,-4.9924,-4.9862,-5.0101,-5.0124,-5.0145,-5.0219,-5.0249,-4.9893,-4.9892,-4.9891,-4.989,0,-4.938,-4.9467,-4.9551,-4.9615,-4.9664,-4.9768,-4.9756,-4.981,-4.9783,-4.9784,-4.9909,-4.9937,-5.0009,-5.0044,-5.0019,-5.0195,-5.0163,-5.0106,-5.0007,-5.0185,-5.0255,-5.0283,-4.9905,-4.9902,-4.9899,-4.9897,0,0,-4.9658,-4.9706,-4.9738,-4.9766,-4.981,-4.9876,-4.9979,-5.005,-5.0097,-5.0144,-5.023,-5.034,-5.0287,-5.0326,-5.0304,-5.038,-5.0554,-5.0313,-5.0313,-5.0356,-5.075,-5.0792,-5.0826,-5.0523,-5.0529,-5.0533,-5.0746,0,-4.9863,-5.004,-5.0018,-5.0187,-5.0267,-5.0206,-5.0295,-5.0333,-5.0337,-5.0406,-5.0411,-5.049,-5.0414,-5.0437,-5.051,-5.0518,-5.0632,-5.0502,-5.0602,-5.0606,-5.0592,-5.0862,-5.0907,-5.1106,-5.0773,-5.0778,-5.0781,0,-5.0125,-5.0183,-5.036,-5.0394,-5.0426,-5.0507,-5.0571,-5.0638,-5.068,-5.0678,-5.0723,-5.0689,-5.0792,-5.0694,-5.0837,-5.0749,-5.0789,-5.08,-5.0807,-5.0814,-5.0703,-5.0876,-5.1169,-5.1199,-5.0824,-5.082,-5.0817,0,-5.031,-5.0432,-5.0554,-5.058,-5.0622,-5.0681,-5.0701,-5.0737,-5.0783,-5.084,-5.0869,-5.0937,-5.0975,-5.1029,-5.1015,-5.0945,-5.1162,-5.1062,-5.1163,-5.1164,-5.121,-5.1207,-5.1513,-5.1238,-5.1238,-5.1237,-5.1237,0,-5.0541,-5.0652,-5.0637,-5.0712,-5.0835,-5.081,-5.0933,-5.0946,-5.098,-5.1057,-5.1009,-5.1082,-5.106,-5.1133,-5.1123,-5.1243,-5.1261,-5.1262,-5.1258,-5.1266,-5.1266,-5.129,-5.1276,-5.1245,-5.1244,-5.1242,-5.1241,0,-5.0766,-5.0761,-5.089,-5.0921,-5.0931,-5.1021,-5.1047,-5.1118,-5.112,-5.1218,-5.124,-5.1243,-5.1327,-5.1318,-5.1412,-5.1405,-5.1555,-5.1534,-5.154,-5.1535,-5.1637,-5.1627,-5.1968,-5.2012,-5.171,-5.1713,-5.1716,0,-5.0913,-5.0997,-5.1037,-5.1086,-5.111,-5.1189,-5.1235,-5.1214,-5.1264,-5.132,-5.1385,-5.1465,-5.1527,-5.1664,-5.1674,-5.1746,-5.1727,-5.1842,-5.1737,-5.1743,-5.1728,-5.1723,-5.1731,-5.1862,-5.1865,-5.1868,-5.187,0,-5.1174,-5.1168,-5.1236,-5.1305,-5.1361,-5.1414,-5.1462,-5.1504,-5.1489,-5.1548,-5.1633,-5.1681,-5.1778,-5.1858,-5.1927,-5.1948,-5.1908,-5.1904,-5.1931,-5.1939,-5.1938,-5.194,-5.1595,-5.1895,-5.1893,-5.1891,-5.1889,-5.1888,-5.1364,-5.1436,-5.1476,-5.1554,-5.1589,-5.1635,-5.1704,-5.1715,-5.1786,-5.1863,-5.1847,-5.1943,-5.1985,-5.2073,-5.2102,-5.2178,-5.2136,-5.2175,-5.2185,-5.2195,-5.2207,-5.1928,-5.219,-5.219,-5.2189,-5.2188,-5.2188,0,-5.1622,-5.1645,-5.1718,-5.1786,-5.1849,-5.1806,-5.1857,-5.1912,-5.1997,-5.204,-5.2103,-5.2202,-5.228,-5.2298,-5.2373,-5.243,-5.2413,-5.245,-5.2445,-5.245,-5.224,-5.2208,-5.2462,-5.2462,-5.2462,-5.2462,-5.2462,-5.2462,-5.1763,-5.1883,-5.1883,-5.2021,-5.2043,-5.2137,-5.217,-5.2213,-5.2247,-5.236,-5.2425,-5.2436,-5.247,-5.2547,-5.2617,-5.262,-5.265,-5.2694,-5.269,-5.2493,-5.2465,-5.2439,-5.2409,-5.2701,-5.2701,-5.2894,-5.2896,-5.2898]},{"header":{"parameterUnit":"m.s-1","parameterCategory":1,"la1":30.2991,"la2":30.254,"lo1":-89.0895,"lo2":-89.0444,"dx":0.0017,"dy":0.0017,"nx":28,"ny":28,"refTime":"2022-11-26T09:00:00:Z","depth":0,"parameterNumber":3,"parameterNumberName":"V-component_of_WINDS"},"data":[0,0,0,0,0,0,0,0,0,0,0,0,0,0,0,0,0,0,0,0,0,0,0,0,0,0,0,0,0,0,0,0,0,0,0,0,0,0,0,0,0,0,0,0,0,0,0,0,0,0,0,0,0,0,0,0,0,0,0.7312,0.7312,0,0.7322,0.7322,0.7322,0.7313,0.7313,0.7312,0.7312,0.7321,0.7321,0.7322,0,0,0,0,0,0,0,0,0,0,0,0,0,0.7286,0.7287,0.7312,0.7312,0.7312,0.7322,0.7322,0.7322,0.7313,0.7313,0.7312,0.7312,0.7321,0.7321,0.7322,0,0,0,0,0,0,0,0,0,0,0,0,0,0.7297,0.7287,0.7312,0.7309,0.7309,0.7322,0.7322,0.7322,0.7313,0.7313,0.7312,0.7311,0.732,0.7321,0.7322,0.7338,0,0,0.7325,0.7325,0,0,0,0,0,0,0,0,0.7296,0.7298,0.7309,0.7309,0.7309,0.7316,0.7316,0.7327,0.7313,0.7311,0.7312,0.7311,0.7319,0.732,0.7323,0.7338,0.7339,0.7325,0.7325,0.7326,0.7326,0,0,0,0,0,0,0,0.7296,0.7297,0.7316,0.7309,0.7309,0.7307,0.7308,0.7318,0.7318,0.7311,0.7311,0.7312,0.7319,0.7322,0.7323,0.7339,0.7325,0.7325,0.7326,0.7326,0.737,0.7371,0,0,0,0,0,0,0.7295,0.7297,0.7315,0.7316,0.7301,0.7308,0.7309,0.7314,0.7318,0.7318,0.7313,0.7312,0.7321,0.7322,0.7324,0.7344,0.7326,0.7326,0.7327,0.7369,0.737,0.7371,0,0,0,0,0,0,0.7295,0.7297,0.7315,0.7306,0.7308,0.7309,0.7315,0.7314,0.7318,0.7319,0.7319,0.7316,0.7321,0.7322,0.7335,0.7344,0.7327,0.7328,0.7369,0.737,0.737,0.7384,0,0,0,0,0,0,0.7294,0.7297,0.7302,0.7306,0.7309,0.7326,0.7315,0.7315,0.7319,0.7318,0.7322,0.7322,0.7321,0.7334,0.7336,0.7345,0.7328,0.7368,0.7369,0.737,0.7383,0.7385,0.7388,0,0,0,0,0,0.7293,0.7305,0.7303,0.7305,0.7316,0.7327,0.7328,0.7326,0.732,0.7326,0.7327,0.7322,0.7343,0.7335,0.7337,0.7347,0.7367,0.7369,0.737,0.7382,0.7385,0.7388,0,0,0,0,0,0,0.7301,0.7306,0.7303,0.7317,0.7322,0.7325,0.7332,0.7329,0.7335,0.7334,0.7331,0.7332,0.7346,0.7348,0.7339,0.7364,0.7354,0.7356,0.7362,0.7365,0.7368,0.7367,0.7329,0,0,0,0,0,0.7305,0.7313,0.7316,0.7328,0.7331,0.7331,0.7336,0.7334,0.7339,0.7341,0.7343,0.7347,0.7355,0.736,0.7367,0.7383,0.7385,0.7391,0.7393,0.7395,0.7397,0.7408,0.7411,0.7376,0.7376,0.7376,0,0,0.7312,0.7315,0.732,0.733,0.7333,0.7342,0.7333,0.7342,0.7349,0.7342,0.7354,0.7356,0.7361,0.7376,0.7383,0.7378,0.7407,0.7397,0.7399,0.7399,0.7409,0.7413,0.7416,0.7377,0.7376,0.7376,0,0,0.7329,0.7332,0.7344,0.7348,0.7354,0.7355,0.7357,0.7362,0.7363,0.7376,0.7372,0.738,0.7393,0.7397,0.7401,0.7423,0.7419,0.7426,0.7438,0.7448,0.7451,0.7453,0.7463,0.7466,0.7427,0.7427,0.7427,0,0.7337,0.7351,0.7349,0.736,0.7365,0.736,0.7372,0.7376,0.7384,0.7388,0.7382,0.74,0.7403,0.742,0.7426,0.7428,0.7432,0.7425,0.7451,0.7453,0.7455,0.7464,0.7467,0.7428,0.7428,0.7428,0.7428,0,0.7361,0.737,0.7379,0.7388,0.7394,0.7404,0.7406,0.7412,0.7411,0.7412,0.7426,0.743,0.7439,0.7443,0.744,0.746,0.7457,0.7451,0.7441,0.746,0.7468,0.7471,0.7429,0.7429,0.7429,0.7429,0,0,0.7382,0.7392,0.7395,0.74,0.7408,0.7415,0.7427,0.7436,0.7442,0.7448,0.7458,0.7471,0.7467,0.7471,0.747,0.7479,0.7498,0.7472,0.7472,0.7478,0.7521,0.7526,0.7529,0.7496,0.7496,0.7497,0.7521,0,0.7401,0.7421,0.7422,0.7441,0.7451,0.7447,0.7458,0.7464,0.7466,0.7475,0.7477,0.7487,0.7479,0.7482,0.7491,0.7494,0.7507,0.7492,0.7506,0.7506,0.7505,0.7533,0.7538,0.756,0.7524,0.7525,0.7525,0,0.7425,0.7434,0.7454,0.7462,0.7466,0.7475,0.7485,0.7493,0.7501,0.7502,0.7508,0.7506,0.7519,0.7509,0.7527,0.7517,0.7523,0.7526,0.7526,0.7528,0.7517,0.7536,0.7567,0.7571,0.753,0.7529,0.7529,0,0.744,0.7457,0.7471,0.7475,0.7485,0.7492,0.7496,0.7503,0.7509,0.7518,0.7522,0.7532,0.7537,0.7545,0.7547,0.7539,0.7565,0.7555,0.7567,0.7567,0.7573,0.7572,0.7606,0.7576,0.7575,0.7575,0.7575,0,0.7461,0.7474,0.7479,0.7488,0.7502,0.7503,0.7518,0.7522,0.7528,0.7539,0.7536,0.7546,0.7547,0.7557,0.7558,0.7574,0.7576,0.7578,0.7578,0.7578,0.7578,0.7582,0.7581,0.7576,0.7576,0.7576,0.7576,0,0.748,0.7484,0.75,0.7508,0.7511,0.7522,0.7529,0.7538,0.7541,0.7554,0.7557,0.7562,0.7574,0.7576,0.759,0.7591,0.761,0.7608,0.7608,0.7608,0.762,0.7619,0.7658,0.7663,0.7629,0.7629,0.7629,0,0.7494,0.7504,0.7514,0.7521,0.7526,0.7537,0.7545,0.7546,0.7554,0.7565,0.7573,0.7585,0.7595,0.7614,0.7619,0.763,0.7629,0.7642,0.7631,0.7631,0.7631,0.763,0.7632,0.7644,0.7644,0.7645,0.7645,0,0.7518,0.752,0.753,0.7542,0.7551,0.756,0.7568,0.7574,0.7578,0.7586,0.76,0.7607,0.7623,0.7635,0.7647,0.7651,0.7649,0.7649,0.7652,0.7653,0.7653,0.7654,0.7614,0.7648,0.7647,0.7647,0.7647,0.7647,0.7535,0.7545,0.7554,0.7566,0.7574,0.7582,0.7592,0.7597,0.7608,0.7621,0.7622,0.7636,0.7645,0.7661,0.7667,0.7678,0.7674,0.7679,0.7681,0.7682,0.7684,0.7651,0.768,0.768,0.768,0.768,0.768,0,0.756,0.7566,0.7578,0.7591,0.7601,0.7599,0.7609,0.7618,0.7631,0.764,0.765,0.7666,0.7679,0.7685,0.7698,0.7706,0.7706,0.771,0.7709,0.7711,0.7686,0.7682,0.771,0.771,0.771,0.771,0.771,0.771,0.7574,0.759,0.7594,0.7615,0.7621,0.7636,0.7642,0.7651,0.7658,0.7676,0.7687,0.7692,0.77,0.7714,0.7726,0.7728,0.7733,0.7738,0.7739,0.7715,0.7712,0.7709,0.7706,0.7739,0.7739,0.7763,0.7763,0.7763]}]]